Regional Weather Roundup
Issued by NWS

Home | Current Version | Previous Version | Text Only | Print | Product List | Glossary On
Versions: 1 2 3 4 5 6 7 8 9 10 11 12 13 14 15 16 17 18 19 20 21 22 23 24 25 26 27 28 29 30 31 32 33 34 35 36 37 38 39 40 41 42 43 44 45 46 47 48 49 50
000
ASUS45 KABQ 310010
RWRNM
NEW MEXICO REGIONAL WEATHER ROUNDUP
NATIONAL WEATHER SERVICE ALBUQUERQUE NM
600 PM MDT SUN AUG 30 2015

NOTE: "FAIR" MEANS FEW OR NO CLOUDS BELOW 12,000 FEET AGL WITH NO
       SIGNIFICANT WEATHER OR OBSTRUCTIONS TO VISION.

      THIS PRODUCT IS RELEASED AS TWO VERSIONS.  ONE VERSION NEAR
      THE TOP OF THE HOUR CONTAINING PRELIMINARY DATA FROM ALBUQUERQUE
      AND OTHER STATIONS.  A FINAL VERSION WITH ADDITIONAL DATA IS
      ISSUED ABOUT 10 MINUTES AFTER THE HOUR.

NMZ501-503-504-510>518-310100-
NORTHWEST PLATEAU/NORTHCENTRAL MOUNTAINS

CITY           SKY/WX    TMP DP  RH WIND       PRES   REMARKS
FARMINGTON     SUNNY     83  41  22 W10       30.08F
6HR MIN TEMP:  82; 6HR MAX TEMP:  89;

LOS ALAMOS     SUNNY     80  40  24 SW7       30.23S
SANTA FE       MOSUNNY   84  34  16 SW5       30.14F
6HR MIN TEMP:  67; 6HR MAX TEMP:  86; 6HR PCP:  0.02;

TAOS           MOSUNNY  N/A N/A N/A W10       30.22S
ANGEL FIRE     FAIR      71  43  37 E14       30.33S

$$
NMZ402-403-502-505>509-310100-
WESTCENTRAL MOUNTAINS/SOUTHWEST MOUNTAINS

CITY           SKY/WX    TMP DP  RH WIND       PRES   REMARKS
GALLUP         LGT RAIN  73  51  46 N12G20    30.21R
6HR MIN TEMP:  68; 6HR MAX TEMP:  89; 6HR PCP:  0.03;

GRANTS         PTSUNNY   73  47  39 SW22G30   30.20R
SILVER CITY      N/A     82  48  30 NE6       30.14F

$$
NMZ407-409-411-412-310100-
SOUTHERN DESERTS

CITY           SKY/WX    TMP DP  RH WIND       PRES   REMARKS
LORDSBURG      TSTM      72  57  60 W21G49    30.06R
DEMING         SUNNY     91  49  23 SW8       30.03F
6HR MIN TEMP:  85; 6HR MAX TEMP:  93;

LAS CRUCES     SUNNY     90  45  20 SE5       30.06S
HOLLOMAN AFB   MOSUNNY   91  50  24 N9        30.00F
ALAMOGORDO     MOSUNNY   91  50  24 S10       30.02F
T OR C         MOSUNNY   89  47  23 NW14G22   30.05F
6HR MIN TEMP:  83; 6HR MAX TEMP:  92;


$$
NMZ519>523-310100-
CENTRAL VALLEYS/CENTRAL HIGHLANDS

CITY           SKY/WX    TMP DP  RH WIND       PRES   REMARKS
ALBUQUERQUE    MOSUNNY   91  43  18 NW6       30.07F
6HR MIN TEMP:  81; 6HR MAX TEMP:  92;

DOUBLE EAGLE   MOSUNNY   90  45  20 S8        30.12F
MORIARTY ARPT  FAIR      85  40  20 W6        30.16S
6HR MIN TEMP:  80; 6HR MAX TEMP:  87;

CLINES CORNERS PTSUNNY   73  45  36 SE13      30.23R
6HR MIN TEMP:  73; 6HR MAX TEMP:  85;

BELEN          FAIR      91  37  15 SW7G18    30.06F
6HR MIN TEMP:  83; 6HR MAX TEMP:  92;

SOCORRO        FAIR      91  41  17 SE9       30.04F
6HR MIN TEMP:  82; 6HR MAX TEMP:  93;


$$
NMZ524>526-539-540-310100-
SOUTHCENTRAL MOUNTAINS

CITY           SKY/WX    TMP DP  RH WIND       PRES   REMARKS
RUIDOSO        MOSUNNY   75  46  35 MISG      30.26S

$$
NMZ527>531-310100-
NORTHEAST HIGHLANDS/NORTHEAST PLAINS

CITY           SKY/WX    TMP DP  RH WIND       PRES   REMARKS
LAS VEGAS      MOSUNNY   82  40  22 SW10      30.19F
6HR MIN TEMP:  80; 6HR MAX TEMP:  85;

RATON          PTSUNNY   86  43  22 S18       30.11S
6HR MIN TEMP:  82; 6HR MAX TEMP:  91;

CLAYTON        SUNNY     85  52  32 S15       30.06S
6HR MIN TEMP:  83; 6HR MAX TEMP:  88;


$$
NMZ532>537-310100-
EASTCENTRAL PLAINS

CITY           SKY/WX    TMP DP  RH WIND       PRES   REMARKS
TUCUMCARI      SUNNY     89  50  26 SW13      30.00F
6HR MIN TEMP:  87; 6HR MAX TEMP:  93;

CANNON AFB     SUNNY     88  45  22 SW8       30.05F
6HR MIN TEMP:  82; 6HR MAX TEMP:  89;

CLOVIS AIRPORT SUNNY     86  46  25 S12       30.06F

$$
NMZ028-029-538-310100-
SOUTHEAST PLAINS

CITY           SKY/WX    TMP DP  RH WIND       PRES   REMARKS
ROSWELL        SUNNY     90  45  21 S12       30.01F
6HR MIN TEMP:  83; 6HR MAX TEMP:  92;

ARTESIA        SUNNY     88  48  25 SE12      30.02S
CARLSBAD       SUNNY     91  46  21 S8        29.99S
6HR MIN TEMP:  85; 6HR MAX TEMP:  93;



$$



USA.gov is the U.S. government's official web portal to all federal, state and local government web resources and services.